カタログに戻る

WGS 5

USA 243

運用中軍事GEO
NORAD 39168·PAYLOAD·🇺🇸 United States

打ち上げ May 25, 2013 から Cape Canaveral Space Force Station

Loading…

TLE

最新Source: Space-Track

元期: Sep 14, 2026, 11:50 UTC

1 39168U 13024A   26257.49349523  .00000000  00000-0  00000-0 0  9998
2 39168   0.0202 168.3174 0000522  15.4187 294.8862  1.00269224 48072

AllMySatでWGS 5をリアルタイム追跡

Download on the App Store